GAOFEN 9 05

导读

高分九号05星(GAOFEN 9 05)是中国于2020年8月23日在酒泉卫星发射中心,通过长征二号丁运载火箭成功发射的光学遥感卫星。该卫星地面像元分辨率最高可达亚米级,主要服务于国土普查、城市规划、土地确权、路网设计、农作物估产和防灾减灾等领域,能够为“一带一路”建设等国家重大战略实施提供可靠的空间信息保障,进一步完善了我国高分辨率对地观测体系。

Basic Information
目录编号:
46232
目录名称:
GAOFEN 9 05
国际标识:
2020-058A
轨道中心:
EARTH
卫星名称:
GAOFEN 9 05
卫星全名:
--
卫星状态:
在轨 (已飞行2210 天)
发射日期:
2020-08-23 UTC
国别 :
中国 (CN)
星等 :
--
Orbit Information
数据来源 国际轨道数据 AOE轨道数据
星历时间 2026-09-11T01:39:07+0800
9小时前
查看轨道信息
2026-09-09T23:00:00+0800
1天前
查看轨道信息
半长轴 6844.39km 6844.414km
偏心率 0.000918 0.0009062
轨道倾角 97.202° 97.202°
近地点辐角 139.259° 144.109°
升交点赤经 291.798° 290.716°
平近点角 220.934° 210.668°
近地点 459.969km 460.074km
远地点 472.537km 472.48km
周期 93.921分钟 93.921分钟
每日圈数 15.332067 15.331987
Detailed Information
使用方式:
暂无
2D Orbit Map
3D Orbit Map
Orbit Altitude Analysis Chart
Orbit Inclination Analysis Chart
Orbit Comprehensive Analysis Chart
View Comprehensive Chart
Conjunction Data List
Event ID Objects TCA Miss Dist (km) Collision Risk Probability Collision Risk Index (CRI) Action
CDM_260911-034504-623206-606824
2026-09-11T
03:45:25+0000
0.069 km
近距离
1.374107E-3 极高风险 0.98
CDM_260912-024804-623206-891323
2026-09-12T
02:48:07+0000
0.438 km
远距离
2.724193E-4 高风险 0.84
CDM_260912-103004-623205-784723
2026-09-12T
10:30:39+0000
0.518 km
远距离
1.868165E-4 高风险 0.8
CDM_260913-085304-623206-637221
2026-09-13T
08:53:54+0000
0.586 km
远距离
1.356915E-4 高风险 0.78
CDM_260911-130404-623206-540624
2026-09-11T
13:04:52+0000
0.616 km
远距离
1.206225E-4 高风险 0.77
CDM_260912-143104-623206-860823
2026-09-12T
14:31:38+0000
1.150 km
极远距离
1.678081E-5 中风险 0.59
CDM_260912-042004-623206-860824
2026-09-12T
04:20:50+0000
1.242 km
极远距离
1.282328E-5 中风险 0.57
CDM_260912-143204-623206-891323
2026-09-12T
14:32:53+0000
1.538 km
极远距离
6.177155E-6 低风险 0.51
CDM_260912-024604-623206-860823
2026-09-12T
02:46:52+0000
1.573 km
极远距离
5.775663E-6 低风险 0.5
CDM_260913-072904-623206-897222
2026-09-13T
07:29:06+0000
1.728 km
极远距离
4.290616E-6 低风险 0.48
Miss Distance Evolution Trend with All Objects
Collision Probability Evolution Trend with All Objects